When you browse on this site, cookies collect data to enhance your experience and personalize the content and advertising you see.
Visit our Privacy Policy to learn more. By continuing to use the site, you agree to this use of cookies and data.
  • en Suisse
  • Liste des pays
  • À 7 jours
  • Température de l'eau
  • Carte météo
  • Widgets météo
  • user-avatar
    Se connecter

    Météo par heure à Pecz

    Ce jour, 8 Avril, Mercredi

    Heure Température Précipitation Vent Pression Humidité
    00:00 +8°C° 0 mm 1 m/s 755 mmHg 46%
    01:00 +8°C° 0 mm 1 m/s 754 mmHg 48%
    02:00 +7°C° 0 mm 1 m/s 754 mmHg 48%
    03:00 +7°C° 0 mm 1 m/s 754 mmHg 47%
    04:00 +7°C° 0 mm 1 m/s 754 mmHg 47%
    05:00 +8°C° 0 mm 1 m/s 754 mmHg 47%
    06:00 +9°C° 0 mm 1 m/s 754 mmHg 46%
    07:00 +10°C° 0 mm 1 m/s 755 mmHg 43%
    08:00 +12°C° 0 mm 1 m/s 754 mmHg 39%
    09:00 +14°C° 0 mm 2 m/s 754 mmHg 34%
    10:00 +16°C° 0 mm 2 m/s 754 mmHg 30%
    11:00 +17°C° 0 mm 2 m/s 753 mmHg 30%
    12:00 +18°C° 0 mm 2 m/s 753 mmHg 29%
    13:00 +18°C° 0 mm 2 m/s 753 mmHg 29%
    14:00 +18°C° 0 mm 2 m/s 752 mmHg 30%
    15:00 +18°C° 0 mm 2 m/s 751 mmHg 31%
    16:00 +18°C° 0 mm 2 m/s 751 mmHg 32%
    17:00 +16°C° 0 mm 1 m/s 751 mmHg 36%
    18:00 +14°C° 0 mm 1 m/s 750 mmHg 41%
    19:00 +11°C° 0 mm 0 m/s 750 mmHg 46%
    20:00 +10°C° 0 mm 0 m/s 750 mmHg 47%
    21:00 +10°C° 0 mm 0 m/s 750 mmHg 49%
    22:00 +9°C° 0 mm 0 m/s 751 mmHg 50%
    23:00 +9°C° 0 mm 0 m/s 750 mmHg 51%

    Demain, 9 Avril, Jeudi

    Heure Température Précipitation Vent Pression Humidité
    00:00 +8°C° 0 mm 0 m/s 750 mmHg 53%
    01:00 +8°C° 0 mm 0 m/s 750 mmHg 54%
    02:00 +7°C° 0 mm 0 m/s 749 mmHg 55%
    03:00 +7°C° 0 mm 0 m/s 749 mmHg 56%
    04:00 +7°C° 0 mm 0 m/s 749 mmHg 58%
    05:00 +8°C° 0 mm 0 m/s 749 mmHg 56%
    06:00 +9°C° 0 mm 0 m/s 749 mmHg 55%
    07:00 +10°C° 0 mm 0 m/s 749 mmHg 54%
    08:00 +12°C° 0 mm 0 m/s 749 mmHg 49%
    09:00 +15°C° 0 mm 0 m/s 749 mmHg 44%
    10:00 +17°C° 0 mm 0 m/s 749 mmHg 40%
    11:00 +18°C° 0 mm 0 m/s 749 mmHg 37%
    12:00 +21°C° 0 mm 1 m/s 749 mmHg 34%
    13:00 +22°C° 0 mm 1 m/s 748 mmHg 31%
    14:00 +21°C° 0 mm 1 m/s 748 mmHg 31%
    15:00 +21°C° 0 mm 1 m/s 747 mmHg 31%
    16:00 +21°C° 0 mm 1 m/s 747 mmHg 31%
    17:00 +19°C° 0 mm 1 m/s 747 mmHg 36%
    18:00 +16°C° 0 mm 1 m/s 747 mmHg 42%
    19:00 +14°C° 0 mm 1 m/s 746 mmHg 47%
    20:00 +13°C° 0 mm 1 m/s 747 mmHg 48%
    21:00 +12°C° 0 mm 1 m/s 747 mmHg 49%
    22:00 +12°C° 0 mm 2 m/s 748 mmHg 51%
    23:00 +12°C° 0 mm 2 m/s 748 mmHg 52%

    Après-demain, 10 Avril, Vendredi

    Heure Température Précipitation Vent Pression Humidité
    00:00 +10°C° 0 mm 2 m/s 747 mmHg 53%
    01:00 +10°C° 0 mm 3 m/s 747 mmHg 54%
    02:00 +9°C° 0 mm 2 m/s 747 mmHg 57%
    03:00 +9°C° 0 mm 2 m/s 747 mmHg 60%
    04:00 +8°C° 0 mm 2 m/s 747 mmHg 63%
    05:00 +9°C° 0 mm 2 m/s 748 mmHg 65%
    06:00 +10°C° 0 mm 2 m/s 748 mmHg 66%
    07:00 +12°C° 0 mm 2 m/s 748 mmHg 68%
    08:00 +13°C° 0 mm 3 m/s 749 mmHg 62%
    09:00 +16°C° 0 mm 3 m/s 749 mmHg 57%
    10:00 +18°C° 0 mm 3 m/s 749 mmHg 51%
    11:00 +19°C° 0 mm 3 m/s 749 mmHg 49%
    12:00 +20°C° 0 mm 4 m/s 749 mmHg 48%
    13:00 +20°C° 0 mm 4 m/s 749 mmHg 46%
    14:00 +20°C° 0 mm 4 m/s 748 mmHg 46%
    15:00 +20°C° 0 mm 3 m/s 748 mmHg 46%
    16:00 +19°C° 0 mm 3 m/s 747 mmHg 47%
    17:00 +17°C° 0 mm 3 m/s 747 mmHg 52%
    18:00 +16°C° 0 mm 2 m/s 748 mmHg 58%
    19:00 +14°C° 0 mm 2 m/s 748 mmHg 64%
    20:00 +13°C° 0 mm 2 m/s 748 mmHg 65%
    21:00 +12°C° 0 mm 2 m/s 748 mmHg 65%
    22:00 +10°C° 0 mm 2 m/s 748 mmHg 66%
    23:00 +10°C° 0 mm 2 m/s 748 mmHg 63%

    11 Avril, Samedi

    Heure Température Précipitation Vent Pression Humidité
    00:00 +11°C° 0 mm 1 m/s 748 mmHg 60%
    01:00 +11°C° 0 mm 1 m/s 748 mmHg 57%
    02:00 +11°C° 0 mm 1 m/s 748 mmHg 56%
    03:00 +10°C° 0 mm 1 m/s 748 mmHg 55%
    04:00 +10°C° 0 mm 1 m/s 749 mmHg 54%
    05:00 +11°C° 0 mm 1 m/s 749 mmHg 55%
    06:00 +11°C° 0 mm 1 m/s 749 mmHg 56%
    07:00 +11°C° 0 mm 1 m/s 749 mmHg 57%
    08:00 +13°C° 0 mm 2 m/s 749 mmHg 55%
    09:00 +14°C° 0 mm 2 m/s 749 mmHg 54%
    10:00 +15°C° 0 mm 2 m/s 749 mmHg 52%
    11:00 +16°C° 0 mm 2 m/s 749 mmHg 49%
    12:00 +17°C° 0 mm 2 m/s 749 mmHg 47%
    13:00 +18°C° 0 mm 2 m/s 749 mmHg 44%
    14:00 +18°C° 0 mm 2 m/s 748 mmHg 44%
    15:00 +18°C° 0 mm 2 m/s 748 mmHg 43%
    16:00 +18°C° 0 mm 2 m/s 748 mmHg 43%
    17:00 +16°C° 0 mm 2 m/s 748 mmHg 48%
    18:00 +15°C° 0 mm 1 m/s 748 mmHg 53%
    19:00 +13°C° 0 mm 1 m/s 748 mmHg 58%
    20:00 +12°C° 0 mm 1 m/s 748 mmHg 60%
    21:00 +11°C° 0 mm 1 m/s 748 mmHg 61%
    22:00 +10°C° 0 mm 1 m/s 748 mmHg 63%
    23:00 +10°C° 0 mm 1 m/s 748 mmHg 64%

    12 Avril, Dimanche

    Heure Température Précipitation Vent Pression Humidité
    00:00 +10°C° 0 mm 1 m/s 748 mmHg 65%
    01:00 +9°C° 0 mm 1 m/s 748 mmHg 66%
    02:00 +9°C° 0 mm 1 m/s 748 mmHg 67%
    03:00 +9°C° 0 mm 1 m/s 748 mmHg 68%
    04:00 +9°C° 0 mm 1 m/s 748 mmHg 69%
    05:00 +9°C° 0 mm 2 m/s 748 mmHg 68%
    06:00 +9°C° 0 mm 2 m/s 748 mmHg 67%
    07:00 +10°C° 0 mm 2 m/s 748 mmHg 66%
    08:00 +12°C° 0 mm 3 m/s 748 mmHg 60%
    09:00 +14°C° 0 mm 3 m/s 748 mmHg 54%
    10:00 +17°C° 0 mm 4 m/s 747 mmHg 49%
    11:00 +18°C° 0 mm 4 m/s 747 mmHg 47%
    12:00 +18°C° 0 mm 3 m/s 746 mmHg 44%
    13:00 +19°C° 0 mm 3 m/s 746 mmHg 42%
    14:00 +19°C° 0 mm 3 m/s 745 mmHg 43%
    15:00 +19°C° 0 mm 3 m/s 745 mmHg 43%
    16:00 +19°C° 0 mm 3 m/s 744 mmHg 44%
    17:00 +17°C° 0 mm 3 m/s 744 mmHg 49%
    18:00 +14°C° 0 mm 3 m/s 743 mmHg 55%
    19:00 +12°C° 0 mm 3 m/s 743 mmHg 60%
    20:00 +12°C° 0 mm 3 m/s 743 mmHg 61%
    21:00 +12°C° 0 mm 2 m/s 743 mmHg 62%
    22:00 +12°C° 0 mm 2 m/s 743 mmHg 63%
    23:00 +10°C° 0 mm 2 m/s 742 mmHg 65%

    13 Avril, Lundi

    Heure Température Précipitation Vent Pression Humidité
    00:00 +10°C° 0 mm 2 m/s 742 mmHg 68%
    01:00 +10°C° 0 mm 2 m/s 742 mmHg 70%
    02:00 +10°C° 0 mm 2 m/s 741 mmHg 71%
    03:00 +9°C° 0 mm 2 m/s 741 mmHg 72%
    04:00 +9°C° 0 mm 2 m/s 741 mmHg 72%
    05:00 +10°C° 0 mm 2 m/s 741 mmHg 70%
    06:00 +11°C° 0 mm 3 m/s 741 mmHg 68%
    07:00 +12°C° 0 mm 3 m/s 741 mmHg 66%
    08:00 +14°C° 0 mm 4 m/s 741 mmHg 62%
    09:00 +16°C° 0 mm 5 m/s 741 mmHg 57%
    10:00 +17°C° 0 mm 5 m/s 741 mmHg 52%
    11:00 +17°C° 0.1 mm 5 m/s 741 mmHg 55%
    12:00 +17°C° 0.1 mm 5 m/s 740 mmHg 57%
    13:00 +17°C° 0.1 mm 5 m/s 740 mmHg 59%
    14:00 +18°C° 0.1 mm 4 m/s 740 mmHg 59%
    15:00 +18°C° 0.1 mm 4 m/s 739 mmHg 59%
    16:00 +17°C° 0.1 mm 3 m/s 739 mmHg 59%
    17:00 +16°C° 0.1 mm 3 m/s 739 mmHg 65%
    18:00 +15°C° 0.1 mm 2 m/s 739 mmHg 70%
    19:00 +14°C° 0.1 mm 2 m/s 739 mmHg 76%
    20:00 +12°C° 1 mm 3 m/s 740 mmHg 77%
    21:00 +12°C° 1 mm 4 m/s 741 mmHg 78%
    22:00 +10°C° 1 mm 5 m/s 741 mmHg 80%
    23:00 +9°C° 0 mm 5 m/s 742 mmHg 80%
    Voir plus